Hourly Weather Roundup
Issued by NWS Central Illinois

Home | Current Version | Previous Version | Text Only | Print | Product List | Glossary On
Versions: 1 2 3 4 5 6 7 8 9 10 11 12 13 14 15 16 17 18 19 20 21 22 23 24 25 26 27 28 29 30 31 32 33 34 35 36 37 38 39 40 41 42 43 44 45 46 47 48 49 50
000
NZUS43 KILX 080310
HWRILX

AREA WEATHER ROUNDUP
NATIONAL WEATHER SERVICE, LINCOLN IL
1000 PM CDT TUE JUL 07 2015


CITY           SKY/WX    TMP DP  RH WIND       PRES   REMARKS
BLOOMINGTON    MOCLDY    60  56  87 E8        30.11R
CHAMPAIGN      MOCLDY    61  54  77 NE5       30.08R
DANVILLE       PTCLDY    56  54  91 N5        30.06R
DECATUR        CLOUDY    63  56  78 NE7       30.08R
EFFINGHAM      CLOUDY    66  56  70 CALM      30.08R
FLORA          CLOUDY    66  59  79 N8        30.06R
GALESBURG      MOCLDY    60  56  89 NE3       30.09R
JACKSONVILLE   CLOUDY    67  63  86 CALM      30.07R
LACON          MOCLDY    60  56  87 CALM      30.08R
LAWRENCEVILLE  CLOUDY    66  64  93 N7        30.05R
LITCHFIELD     CLOUDY    66  61  82 CALM      30.06R
$$


CITY           SKY/WX    TMP DP  RH WIND       PRES   REMARKS
LINCOLN        MOCLDY    63  58  82 E3        30.09R
MACOMB         CLOUDY    64  62  91 NE6       30.09R FOG
MATTOON        CLOUDY    64  53  67 NE13      30.06R
MT CARMEL AP   CLOUDY    68  63  83 N6        30.04R
OLNEY-NOBLE AP CLOUDY    64  59  82 N5        30.06R
PARIS          CLOUDY    64  55  73 N5        30.08R
PEORIA         MOCLDY    65  58  78 CALM      30.08R
PONTIAC        MOCLDY    59  54  83 E7        30.11R
RANTOUL        PTCLDY    62  54  73 NE5       30.09R
ROBINSON       CLOUDY    65  59  80 NE7       30.06R
SPRINGFIELD    CLOUDY    68  60  75 E7        30.07R
TAYLORVILLE    CLOUDY    64  54  68 NE6       30.07R
$$

...REGIONAL REPORTS...


CITY           SKY/WX    TMP DP  RH WIND       PRES   REMARKS
CHICAGO O`HARE MOCLDY    57  46  66 N7        30.10R
KANKAKEE       MOCLDY    58  50  75 N6        30.10R
MOLINE         MOCLDY    64  56  75 CALM      30.08R
MOUNT STERLING NOT AVBL
MOUNT VERNON   CLOUDY    64  59  82 NE3       30.05R
PITTSFIELD     CLOUDY    67  64  87 CALM      30.08R
QUINCY         CLOUDY    68  63  84 E3        30.06R HAZE
ROCKFORD       MOCLDY    60  51  72 E7        30.12R
$$


CITY           SKY/WX    TMP DP  RH WIND       PRES   REMARKS
BURLINGTON     PTCLDY    64  59  83 N7        30.08R
CEDAR RAPIDS   MOCLDY    63  53  70 N7        30.09R
DES MOINES     MOCLDY    66  51  58 NE6       30.09R
KIRKSVILLE     CLOUDY    65  60  84 NE5       30.09R
OTTUMWA        CLOUDY    63  57  81 N5        30.07R
ST LOUIS       CLOUDY    69  62  78 CALM      30.07R
$$


CITY           SKY/WX    TMP DP  RH WIND       PRES   REMARKS
TERRE HAUTE    CLOUDY    64  52  64 N8        30.06R
EVANSVILLE     CLOUDY    71  69  93 N6        30.03R
INDIANAPOLIS   CLOUDY    63  50  62 N12       30.04R
LAFAYETTE      CLEAR     59  49  69 N6        30.07R
MADISON        MOCLDY    62  53  72 CALM      30.11R
MILWAUKEE      PTCLDY    56  46  69 N6        30.11R
$$




USA.gov is the U.S. government's official web portal to all federal, state and local government web resources and services.